COSMOS 886 DEB

Satellite information

Favourite Embed

Satellite Type and Status

DEBRISIN ORBIT

Key statistics

Satellite COSMOS 886 DEB at a glance.

Uptime

17883

Days in orbit

Revolutions

≈ 13.5

Per day

Orbit

LEO

Low Earth Orbit

Inclination

65.8

Latest

Satellite identification and parameters

Extended collection of information and parameters for COSMOS 886 DEB.

Object identification

Identified? True

Debris? True

Object name: COSMOS 886 DEB

International designator: 1976-126AN

Object number (NORAD): 9826

Object ID (CCSDS): 9826

Country: COMMONWEALTH OF INDEPENDENT STATES (CIS)

Current information (Y/N): Y

RCS size: SMALL

Orbital parameters

Period: 106.891 minutes

Inclination: 65.8427 deg

SMA: 7460.829 km

Apoapsis: 1631.207 km

Periapsis: 534.181 km

RAAN: 357.7432 deg

Eccentricy: 0.07351908

Argument of periapsis: 20.9248 deg

Mean anomaly: 342.0291 deg

Mean motion: 13.47169115 rev/day

Mean motion (dot): 0.00005242 rev/day2

B* drag term: 0.0015726612 1/REarth

Two-line elements (TLE)

Creation date: Dec. 12, 2025, 10:14 a.m.

Reference frame: TEME

Reference center: EARTH

Epoch: Dec. 12, 2025, 4:05 a.m. UTC

TLE line 0: 0 COSMOS 886 DEB

TLE line 1: 1 09826U 76126AN 25346.17048548 .00005242 00000-0 15727-2 0 9991

TLE line 2: 2 09826 65.8427 357.7432 0735191 20.9248 342.0291 13.47169115337171

Live tracking on map

Real-time ground track for satellite COSMOS 886 DEB.

In-orbit conjunctions

A list of the most updated potential collisions computed for object COSMOS 886 DEB.

Target Orbit TCA Probability of collision Miss distance Type
SL-8 R/B LEO 2025-09-17 16:50:25 0.0004521156 367.0 (m) ROCKET BODY
CZ-6A DEB LEO 2025-02-01 07:33:19 0.00144267 214.0 (m) DEBRIS

Associated space launch

Second generation ASAT satellite

COSMOS 886 DEB was lifted into orbit during the mission ‘Tsiklon-2 | IS-A 4’, on board a Tsiklon-2 space rocket.

The launch took place on Dec. 27, 1976, 12:05 p.m. from 90.

For more information about the launch, click the button.

Launch to space Tsiklon-2 | IS-A 4
Tsiklon-2 | IS-A 4

Agency: N/A

Status: Launch Successful

Launch date: Dec. 27, 1976, 12:05 p.m. UTC

Rocket: Tsiklon-2

Launch pad: 90

Location: Baikonur Cosmodrome, Republic of Kazakhstan

...

Latest news about this satellite

There are no fresh news available about this satellite. Check back as we update our databases every day.


Newsletter sign-up

Weekly statistics, charts and insights to help you stay on top of the space industry.